When you browse on this site, cookies collect data to enhance your experience and personalize the content and advertising you see.
Visit our Privacy Policy to learn more. By continuing to use the site, you agree to this use of cookies and data.
  • In Portugal
  • List of Countries
  • For 7 days
  • Water Temperature
  • Weather Map
  • Weather Widgets
  • user-avatar
    Login

    Hourly Weather Cobán

    Today, 26 February, Wednesday

    Time Temperature Precipitation Wind Pressure Humidity
    00:00 +18°C° 0.1 mm 1 mps 653 mmHg 95%
    01:00 +18°C° 0 mm 1 mps 653 mmHg 96%
    02:00 +16°C° 0 mm 0 mps 652 mmHg 96%
    03:00 +16°C° 0 mm 0 mps 652 mmHg 97%
    04:00 +16°C° 0 mm 0 mps 652 mmHg 97%
    05:00 +16°C° 0 mm 0 mps 653 mmHg 96%
    06:00 +16°C° 0 mm 0 mps 653 mmHg 96%
    07:00 +18°C° 0 mm 0 mps 654 mmHg 87%
    08:00 +20°C° 0 mm 0 mps 655 mmHg 78%
    09:00 +22°C° 0 mm 0 mps 656 mmHg 70%
    10:00 +25°C° 0.1 mm 1 mps 656 mmHg 65%
    11:00 +26°C° 0.1 mm 1 mps 656 mmHg 60%
    12:00 +27°C° 0.1 mm 1 mps 656 mmHg 56%
    13:00 +26°C° 0.9 mm 1 mps 655 mmHg 65%
    14:00 +25°C° 0.9 mm 1 mps 655 mmHg 75%
    15:00 +24°C° 0.9 mm 1 mps 654 mmHg 85%
    16:00 +22°C° 1.1 mm 1 mps 654 mmHg 88%
    17:00 +21°C° 1.1 mm 1 mps 654 mmHg 92%
    18:00 +20°C° 1.1 mm 1 mps 653 mmHg 95%
    19:00 +19°C° 0.9 mm 1 mps 654 mmHg 96%
    20:00 +19°C° 0.9 mm 1 mps 655 mmHg 97%
    21:00 +18°C° 0.9 mm 1 mps 656 mmHg 97%
    22:00 +18°C° 0.9 mm 1 mps 656 mmHg 98%
    23:00 +18°C° 0.9 mm 1 mps 656 mmHg 98%

    Tomorrow, 27 February, Thursday

    Time Temperature Precipitation Wind Pressure Humidity
    00:00 +18°C° 0.9 mm 1 mps 656 mmHg 99%
    01:00 +17°C° 3.7 mm 2 mps 656 mmHg 99%
    02:00 +16°C° 3.7 mm 2 mps 656 mmHg 99%
    03:00 +16°C° 3.7 mm 2 mps 656 mmHg 98%
    04:00 +15°C° 2.7 mm 2 mps 656 mmHg 98%
    05:00 +14°C° 2.7 mm 2 mps 656 mmHg 98%
    06:00 +13°C° 2.7 mm 2 mps 656 mmHg 98%
    07:00 +13°C° 1 mm 2 mps 656 mmHg 98%
    08:00 +13°C° 1 mm 2 mps 657 mmHg 97%
    09:00 +13°C° 1 mm 2 mps 658 mmHg 97%
    10:00 +13°C° 0.4 mm 2 mps 658 mmHg 96%
    11:00 +13°C° 0.4 mm 2 mps 657 mmHg 95%
    12:00 +13°C° 0.4 mm 2 mps 657 mmHg 95%
    13:00 +13°C° 0.1 mm 1 mps 657 mmHg 94%
    14:00 +13°C° 0.1 mm 1 mps 656 mmHg 94%
    15:00 +14°C° 0.1 mm 1 mps 656 mmHg 93%
    16:00 +13°C° 0.1 mm 1 mps 656 mmHg 94%
    17:00 +13°C° 0.1 mm 1 mps 656 mmHg 95%
    18:00 +13°C° 0.1 mm 1 mps 656 mmHg 96%
    19:00 +13°C° 0 mm 1 mps 657 mmHg 96%
    20:00 +12°C° 0 mm 1 mps 657 mmHg 97%
    21:00 +11°C° 0 mm 0 mps 658 mmHg 97%
    22:00 +12°C° 0.1 mm 1 mps 658 mmHg 97%
    23:00 +12°C° 0.1 mm 1 mps 658 mmHg 97%

    Day after tomorrow, 28 February, Friday

    Time Temperature Precipitation Wind Pressure Humidity
    00:00 +12°C° 0.1 mm 1 mps 657 mmHg 97%
    01:00 +12°C° 0 mm 1 mps 657 mmHg 97%
    02:00 +12°C° 0 mm 1 mps 657 mmHg 98%
    03:00 +12°C° 0 mm 1 mps 656 mmHg 98%
    04:00 +12°C° 0 mm 1 mps 657 mmHg 98%
    05:00 +11°C° 0 mm 0 mps 657 mmHg 98%
    06:00 +11°C° 0 mm 0 mps 657 mmHg 97%
    07:00 +13°C° 0 mm 1 mps 657 mmHg 96%
    08:00 +13°C° 0 mm 1 mps 658 mmHg 94%
    09:00 +14°C° 0 mm 1 mps 658 mmHg 93%
    10:00 +15°C° 0 mm 1 mps 658 mmHg 87%
    11:00 +16°C° 0 mm 1 mps 658 mmHg 80%
    12:00 +18°C° 0 mm 1 mps 658 mmHg 74%
    13:00 +19°C° 0 mm 1 mps 657 mmHg 73%
    14:00 +19°C° 0 mm 1 mps 657 mmHg 72%
    15:00 +19°C° 0 mm 1 mps 656 mmHg 72%
    16:00 +18°C° 0 mm 1 mps 657 mmHg 78%
    17:00 +16°C° 0 mm 1 mps 657 mmHg 85%
    18:00 +15°C° 0 mm 1 mps 657 mmHg 91%
    19:00 +14°C° 0 mm 1 mps 657 mmHg 92%
    20:00 +14°C° 0 mm 1 mps 658 mmHg 93%
    21:00 +14°C° 0 mm 1 mps 658 mmHg 93%
    22:00 +14°C° 0.1 mm 1 mps 658 mmHg 95%
    23:00 +14°C° 0.1 mm 1 mps 658 mmHg 96%

    29 February, Saturday

    Time Temperature Precipitation Wind Pressure Humidity
    00:00 +13°C° 0.1 mm 1 mps 658 mmHg 97%
    01:00 +13°C° 0.5 mm 1 mps 658 mmHg 97%
    02:00 +13°C° 0.5 mm 1 mps 657 mmHg 98%
    03:00 +13°C° 0.5 mm 1 mps 657 mmHg 98%
    04:00 +13°C° 0.2 mm 1 mps 657 mmHg 98%
    05:00 +13°C° 0.2 mm 1 mps 657 mmHg 98%
    06:00 +13°C° 0.2 mm 1 mps 657 mmHg 98%
    07:00 +13°C° 0.1 mm 1 mps 658 mmHg 96%
    08:00 +14°C° 0.1 mm 1 mps 658 mmHg 94%
    09:00 +14°C° 0.1 mm 1 mps 659 mmHg 91%
    10:00 +14°C° 0.3 mm 1 mps 658 mmHg 91%
    11:00 +14°C° 0.3 mm 1 mps 658 mmHg 91%
    12:00 +14°C° 0.3 mm 1 mps 658 mmHg 91%
    13:00 +14°C° 0.2 mm 1 mps 657 mmHg 92%
    14:00 +14°C° 0.2 mm 1 mps 657 mmHg 93%
    15:00 +14°C° 0.2 mm 1 mps 656 mmHg 94%
    16:00 +13°C° 0 mm 1 mps 656 mmHg 94%
    17:00 +12°C° 0 mm 0 mps 656 mmHg 94%
    18:00 +12°C° 0 mm 0 mps 656 mmHg 95%
    19:00 +12°C° 0 mm 0 mps 657 mmHg 95%
    20:00 +11°C° 0 mm 0 mps 657 mmHg 96%
    21:00 +11°C° 0 mm 0 mps 657 mmHg 97%
    22:00 +11°C° 0 mm 0 mps 657 mmHg 95%
    23:00 +11°C° 0 mm 0 mps 657 mmHg 94%

    1 March, Sunday

    Time Temperature Precipitation Wind Pressure Humidity
    00:00 +12°C° 0 mm 0 mps 657 mmHg 92%
    01:00 +11°C° 0 mm 0 mps 656 mmHg 92%
    02:00 +11°C° 0 mm 0 mps 656 mmHg 92%
    03:00 +11°C° 0 mm 0 mps 655 mmHg 93%
    04:00 +11°C° 0 mm 0 mps 655 mmHg 94%
    05:00 +10°C° 0 mm 0 mps 655 mmHg 95%
    06:00 +9°C° 0 mm 0 mps 655 mmHg 96%
    07:00 +13°C° 0 mm 1 mps 656 mmHg 86%
    08:00 +15°C° 0 mm 1 mps 657 mmHg 76%
    09:00 +19°C° 0 mm 1 mps 658 mmHg 66%
    10:00 +20°C° 0 mm 1 mps 658 mmHg 62%
    11:00 +22°C° 0 mm 1 mps 658 mmHg 58%
    12:00 +23°C° 0 mm 2 mps 657 mmHg 53%
    13:00 +23°C° 0 mm 2 mps 657 mmHg 54%
    14:00 +23°C° 0 mm 2 mps 656 mmHg 55%
    15:00 +23°C° 0 mm 2 mps 655 mmHg 56%
    16:00 +21°C° 0 mm 2 mps 655 mmHg 66%
    17:00 +20°C° 0 mm 1 mps 655 mmHg 76%
    18:00 +18°C° 0 mm 1 mps 654 mmHg 86%
    19:00 +16°C° 0 mm 1 mps 655 mmHg 89%
    20:00 +15°C° 0 mm 1 mps 655 mmHg 93%
    21:00 +13°C° 0 mm 0 mps 655 mmHg 97%
    22:00 +14°C° 0 mm 1 mps 655 mmHg 97%
    23:00 +13°C° 0 mm 1 mps 655 mmHg 96%

    2 March, Monday

    Time Temperature Precipitation Wind Pressure Humidity
    00:00 +13°C° 0 mm 1 mps 654 mmHg 96%
    01:00 +12°C° 0 mm 1 mps 654 mmHg 96%
    02:00 +12°C° 0 mm 1 mps 653 mmHg 96%
    03:00 +12°C° 0 mm 1 mps 653 mmHg 96%
    04:00 +11°C° 0 mm 1 mps 653 mmHg 95%
    05:00 +11°C° 0 mm 1 mps 653 mmHg 94%
    06:00 +11°C° 0 mm 1 mps 653 mmHg 93%
    07:00 +13°C° 0 mm 0 mps 654 mmHg 81%
    08:00 +16°C° 0 mm 0 mps 655 mmHg 68%
    09:00 +19°C° 0 mm 0 mps 656 mmHg 56%
    10:00 +21°C° 0 mm 0 mps 656 mmHg 50%
    11:00 +25°C° 0 mm 1 mps 656 mmHg 44%
    12:00 +27°C° 0 mm 1 mps 656 mmHg 38%
    13:00 +27°C° 0 mm 1 mps 656 mmHg 40%
    14:00 +27°C° 0 mm 1 mps 655 mmHg 42%
    15:00 +27°C° 0 mm 2 mps 654 mmHg 44%
    16:00 +24°C° 0 mm 1 mps 653 mmHg 57%
    17:00 +22°C° 0 mm 1 mps 653 mmHg 70%
    18:00 +19°C° 0 mm 1 mps 652 mmHg 83%
    19:00 +18°C° 0 mm 1 mps 652 mmHg 87%
    20:00 +16°C° 0 mm 1 mps 653 mmHg 91%
    21:00 +15°C° 0 mm 1 mps 653 mmHg 95%
    22:00 +15°C° 0 mm 1 mps 653 mmHg 94%
    23:00 +14°C° 0 mm 1 mps 653 mmHg 93%
    Show more